Vorticity
nan nan nan nan nan nan nan nan nan nan nan nan nan nan nan nan nan nan nan nan nan nan nan nan nan nan nan nan nan nan nan nan nan nan nan nan nan nan nan nan nan nan nan nan nan nan nan nan nan
nan 6 5 6 6 5 8 11 7 10 9 8 5 8 7 9 15 15 11 11 5 4 5 8 8 5 5 6 5 5 6 5 7 5 6 6 6 6 6 5 5 4 5 5 5 5 4 5 nan
nan 8 8 6 5 5 11 7 7 8 7 4 3 4 8 10 9 7 9 7 4 3 8 11 8 7 6 5 5 6 6 6 6 5 6 6 6 5 5 5 6 5 4 5 6 5 4 3 nan
nan 6 6 6 7 13 11 9 4 -1 3 10 7 4 9 9 11 17 10 4 5 4 8 10 7 5 6 5 7 7 6 6 6 5 5 6 5 4 4 5 5 5 6 5 5 5 3 3 nan
nan 7 7 6 6 10 14 12 4 1 5 10 8 3 4 19 19 9 6 6 4 5 8 8 7 7 6 5 6 7 7 6 5 6 6 5 5 6 5 5 5 5 4 5 5 4 4 3 nan
nan 6 5 6 7 5 1 10 5 6 11 3 6 7 11 13 5 4 4 6 6 6 7 8 6 6 7 7 6 7 7 6 6 6 5 5 7 6 5 6 5 5 5 5 5 4 3 3 nan
nan 7 4 6 4 9 9 2 2 11 1 5 7 1 9 6 4 5 6 6 5 5 6 7 8 8 5 4 6 7 7 7 6 6 5 5 8 8 5 4 5 5 5 5 5 4 4 4 nan
nan 6 6 7 9 9 5 5 15 -0 7 11 -0 5 11 8 8 6 6 5 5 5 5 5 6 6 6 9 7 6 7 7 6 6 7 5 3 4 4 4 6 5 4 4 4 4 4 5 nan
nan 5 9 5 7 7 8 9 12 13 12 0 7 15 12 11 4 5 5 5 5 6 6 6 7 6 7 8 8 7 6 4 4 3 -1 1 7 5 5 6 5 5 4 5 4 3 4 4 nan
nan 9 11 4 3 3 5 14 14 10 -0 6 12 11 11 8 4 4 3 4 6 7 6 7 6 6 6 5 4 3 5 6 5 5 4 4 8 9 6 6 5 5 4 4 5 7 8 7 nan
nan 7 15 12 2 1 5 10 10 1 7 15 6 7 4 3 3 3 7 7 5 3 7 9 6 6 6 6 6 7 6 6 7 7 6 4 5 10 8 5 5 5 5 5 7 9 8 7 nan
nan 9 14 18 12 6 10 9 7 2 9 12 10 7 3 3 4 5 6 5 6 6 8 6 6 6 6 7 7 8 7 7 6 6 6 6 5 8 8 6 6 8 7 6 7 7 6 7 nan
nan 9 8 11 13 11 7 5 12 7 17 16 7 5 4 3 5 7 6 6 6 7 9 8 7 5 5 6 7 8 7 8 8 6 6 5 6 8 9 6 7 7 7 6 7 8 8 8 nan
nan 9 7 6 10 10 7 -0 6 22 25 9 6 2 6 6 6 6 8 7 8 6 8 8 8 9 7 6 6 5 8 8 8 7 6 4 8 8 6 6 6 5 7 8 8 7 8 10 nan
nan -0 1 5 10 11 6 4 2 17 16 6 7 2 12 13 7 6 5 7 7 5 7 7 11 12 8 8 5 6 7 7 7 6 6 6 8 11 9 8 6 7 7 7 9 9 8 9 nan
nan 7 2 5 8 6 6 9 14 15 5 5 5 4 14 15 3 5 8 6 4 8 7 5 9 9 10 9 6 6 7 7 7 7 7 12 11 7 6 8 9 9 10 11 8 10 10 10 nan
nan 10 8 7 5 8 13 6 3 16 15 8 3 9 12 8 6 8 10 6 5 5 5 9 7 7 7 8 9 10 8 6 7 8 11 10 6 8 13 10 8 7 9 7 8 10 11 10 nan
nan 9 5 7 6 7 9 5 -1 16 14 6 9 12 13 7 10 9 7 6 6 6 5 7 7 7 5 5 8 9 10 10 9 8 9 8 6 8 8 7 8 8 8 6 9 8 10 11 nan
nan 13 12 9 8 5 5 6 0 4 7 7 15 17 9 9 11 11 6 5 6 6 7 8 7 6 4 6 8 8 8 7 10 11 9 7 8 6 6 6 6 10 7 9 10 7 8 8 nan
nan 9 7 11 7 6 12 6 8 9 11 7 6 16 10 10 13 8 5 7 9 7 7 8 6 7 5 8 8 9 8 8 9 9 9 8 9 8 8 7 7 7 5 7 10 11 10 7 nan
nan 12 12 9 4 6 9 10 11 10 9 6 5 11 16 13 8 5 5 6 8 8 8 6 6 7 7 7 6 8 8 10 8 9 9 9 8 8 8 8 7 6 7 7 8 10 10 9 nan
nan 10 14 9 5 7 5 10 10 12 6 6 5 8 13 13 10 6 6 8 7 7 6 6 7 6 9 7 7 10 8 7 7 8 8 10 8 7 7 7 7 7 5 6 10 11 9 8 nan
nan 14 5 3 5 10 9 9 11 13 9 7 8 7 4 15 13 7 7 5 7 8 7 7 6 5 8 8 7 6 7 7 10 10 9 8 9 10 8 7 6 6 8 7 8 8 10 11 nan
nan -1 6 11 9 8 10 9 7 9 11 8 7 7 6 13 13 9 8 6 7 7 7 7 8 7 8 8 9 9 7 6 8 10 10 8 8 10 10 8 8 7 7 7 9 10 9 8 nan
nan -0 6 6 10 8 10 12 5 9 11 10 9 6 6 6 11 14 10 7 8 7 7 6 6 9 8 7 7 9 8 8 8 8 8 7 8 9 11 8 7 7 7 8 7 7 8 8 nan
nan 4 8 11 8 10 10 5 13 4 8 25 17 9 5 6 9 14 12 8 8 6 6 7 6 7 8 8 8 8 7 7 9 8 8 9 8 8 9 10 8 7 7 7 7 8 7 9 nan
nan 9 8 6 10 12 10 2 11 12 13 26 19 9 5 5 11 10 12 9 9 8 7 7 6 6 8 8 7 8 8 8 8 9 8 8 8 12 12 11 9 8 8 8 7 7 8 10 nan
nan 5 5 11 14 7 7 9 14 12 16 12 13 6 5 5 8 10 12 9 11 10 7 8 9 9 5 6 8 9 8 8 9 10 9 7 9 12 12 8 7 8 9 10 9 8 8 8 nan
nan 10 12 15 7 9 9 10 16 12 13 13 11 9 5 5 8 10 8 12 12 10 10 8 8 8 7 6 8 9 8 9 9 8 9 8 9 8 7 7 8 9 10 11 10 7 7 8 nan
nan nan nan nan nan nan nan nan nan nan nan nan nan nan nan nan nan nan nan nan nan nan nan nan nan nan nan nan nan nan nan nan nan nan nan nan nan nan nan nan nan nan nan nan nan nan nan nan nan
CAPE
46 26 8 251 131 81 19 16 27 49 30 21 24 73 136 169 20 60 256 454 889 1348 1546 2170 2686 2391 2427 2537 2522 2088 2314 2279 2170 2300 2447 2135 2065 2020 1967 1983 2007 2067 1964 1882 1597 1617 1556 1589 1593
0 0 122 258 80 32 79 71 25 33 33 22 49 128 212 315 416 465 453 610 1278 1514 1510 1875 2698 2769 2322 2453 2446 2471 2386 2410 2189 2184 1971 1960 1933 1915 2048 2003 1926 1730 2036 1774 1487 1532 1659 1532 1592
0 0 113 59 116 158 102 59 16 19 32 43 82 144 221 293 411 377 473 1004 1457 1457 1799 2018 2547 2560 2330 2419 2398 2456 2385 2326 2131 2074 2157 2108 2133 1844 1765 1694 1326 1604 1297 1861 1388 1559 1847 1582 1411
0 80 0 147 149 198 97 97 23 6 50 66 64 145 219 342 270 342 490 1091 973 1113 1099 2427 2361 2000 2403 2201 2448 2358 2216 2373 2388 2373 2242 2258 2214 1919 1831 1994 1851 2184 1560 1638 1743 1644 1735 1750 1723
104 97 9 34 148 169 119 49 19 12 8 70 104 130 324 314 211 324 445 468 644 733 986 1435 2526 2357 2029 2272 2293 2276 2155 2318 2301 2566 2187 2086 1851 1856 2032 2112 1974 2019 1857 1384 1473 1372 1531 1632 1671
280 48 5 10 63 178 142 138 35 18 14 51 85 136 228 533 419 290 175 289 782 1307 1518 1380 1893 2041 1967 2250 2228 2271 2154 2485 2487 2626 2082 2019 2106 2444 2183 2021 2016 1675 1484 1421 1190 1147 1274 1223 1372
92 82 2 55 70 158 101 146 123 8 21 23 34 72 81 292 356 103 105 823 1120 1261 1384 1455 1277 1664 2063 2349 2190 2209 2081 2302 2467 2337 1762 2322 2402 2247 2172 1856 1756 1516 1304 1019 1063 996 982 929 1047
291 281 59 75 84 131 69 139 141 27 7 19 33 84 65 72 233 100 374 664 882 1161 1268 1165 1316 1403 1482 1903 2175 2086 2281 1905 2404 2313 1892 2296 2257 2106 2033 2656 2422 1889 1710 1485 1256 1125 1139 1021 1013
654 99 72 19 45 79 327 61 108 22 13 5 0 70 71 167 110 164 203 230 414 791 912 998 1044 1067 1113 1372 1652 1908 2125 2118 2242 2097 2219 1171 1029 1501 1691 2110 2039 1861 1787 1774 1802 1718 1555 1571 1771
225 39 101 15 4 100 391 337 23 13 1 6 18 0 47 97 163 207 196 208 503 599 626 773 788 791 982 1408 1075 969 584 132 398 135 69 145 593 989 1570 1873 2007 1966 1923 1888 1994 2124 2010 1816 1354
273 130 550 5 16 212 111 150 71 44 6 59 49 28 48 115 153 241 141 149 299 372 593 527 666 601 629 809 441 463 57 14 26 0 0 120 201 572 1464 1349 1260 1152 1666 1030 857 1387 1653 1594 1561
471 526 671 468 243 147 281 144 134 83 47 56 46 61 49 42 244 276 200 121 49 267 470 428 549 281 599 183 180 108 0 0 0 0 0 30 407 473 668 863 836 832 669 0 0 186 837 457 429
345 463 485 427 189 112 53 79 209 139 126 71 30 73 11 22 61 164 244 239 206 309 269 319 255 359 539 411 189 0 0 0 0 0 0 102 185 406 569 501 301 0 309 323 184 70 158 392 618
557 375 251 184 44 1 10 11 84 161 59 29 24 2 3 26 76 166 212 211 174 179 193 272 216 476 547 285 97 0 0 0 0 0 0 0 67 399 481 74 231 160 269 30 302 443 614 219 26
503 296 206 168 31 0 8 30 74 117 48 54 0 0 0 21 90 117 147 151 144 152 186 269 416 466 405 298 382 0 15 54 0 0 0 0 90 572 231 375 570 402 240 324 1015 1201 742 639 166
312 104 76 107 132 58 56 25 102 85 38 26 4 2 1 60 78 94 134 137 149 170 139 223 574 245 211 163 131 134 292 282 3 0 40 185 613 967 739 324 367 729 813 835 787 1053 1060 467 228
1 0 117 78 122 82 61 47 24 38 110 1 0 11 30 78 97 51 89 174 175 77 112 98 8 164 351 186 197 199 436 476 196 156 481 630 802 1041 849 972 860 613 447 656 779 687 469 378 195
0 24 30 39 84 47 53 74 11 0 59 83 7 15 31 35 29 55 173 177 114 35 6 0 42 235 137 480 561 152 378 728 906 618 633 634 904 808 638 1 0 0 254 265 799 541 1319 130 155
145 86 62 56 100 61 61 12 23 0 16 114 136 19 28 42 36 162 182 142 123 81 42 41 261 140 97 456 417 268 459 369 1106 992 913 1124 820 1085 515 0 0 0 132 743 977 279 1441 313 252
157 104 128 122 81 80 39 22 11 0 7 78 115 88 20 13 52 65 16 116 180 113 26 19 275 52 207 160 454 280 365 367 895 1106 1106 1241 942 1143 526 89 0 192 605 272 1067 1509 1180 1050 215
59 57 85 121 114 26 21 2 0 5 22 16 66 101 16 20 46 35 7 12 139 98 63 161 206 109 468 378 265 456 359 500 667 690 703 629 1021 1103 585 130 0 258 19 32 792 1520 1568 1492 692
222 304 188 196 86 50 12 0 0 0 8 13 21 52 69 22 53 40 4 48 245 152 145 200 199 387 255 250 68 348 200 270 300 530 665 826 869 1132 698 336 186 282 0 272 907 1649 962 633 586
263 302 304 176 16 35 13 11 1 1 3 9 31 43 60 27 38 27 12 72 216 200 234 218 422 320 312 210 53 0 133 88 317 424 753 736 932 801 1014 772 469 0 1 583 1207 1485 0 52 20
326 188 110 58 35 7 12 15 17 1 0 9 27 26 25 30 29 28 41 49 122 232 215 170 395 180 184 252 287 55 262 272 539 686 704 617 585 764 846 734 540 375 596 762 1320 1422 173 0 0
263 107 23 26 29 38 25 32 7 15 11 1 13 8 0 18 13 16 22 70 114 226 242 259 384 267 185 259 310 164 99 129 446 614 542 531 555 617 841 869 739 789 843 851 1278 1416 1100 470 276
213 28 0 0 70 80 28 32 0 0 0 1 1 34 8 73 58 21 69 99 109 155 259 378 216 405 349 346 276 310 57 3 241 322 315 323 411 446 660 965 671 666 924 866 1112 1008 1167 1024 1158
151 137 14 18 7 9 48 28 6 0 0 0 0 9 1 92 56 44 40 141 210 191 298 380 188 303 214 368 308 290 93 1 252 521 264 108 332 659 518 726 781 817 1083 771 972 948 829 653 994
47 1 8 27 70 15 49 8 0 0 20 0 0 0 4 51 48 15 4 141 108 327 393 413 350 317 165 313 476 341 293 366 377 353 67 127 450 416 298 131 219 585 603 864 794 865 439 890 844
0 0 0 5 10 99 69 51 2 0 13 0 0 1 0 4 23 47 55 18 158 330 332 626 458 469 248 322 527 280 330 487 595 456 46 159 191 0 0 0 0 614 665 789 759 661 474 628 644
0 0 0 0 0 6 2 0 28 0 68 9 5 0 0 4 74 68 137 91 73 103 86 684 636 613 383 370 509 338 305 637 431 508 668 538 169 25 0 0 187 534 689 591 730 712 943 638 600